Location: McFarlands Corners
(41.4117°N, 81.3382°W)
Time: 05:52:12
(UTC+00:00)

Transit 4A - Pass Details

Date: 20 February 2026
Orbit: 864 x 977 km, 66.8° (Epoch: 9 March)

Event Time Altitude Azimuth Distance (km) Brightness Sun altitude
Rises 11:10:35 0° 282° (WNW) 3,494 - -12.4°
Exits shadow 11:14:36 - 310° (NW) 2,715 9.9 -11.7°
Reaches altitude 10° 11:16:17 10° 326° (NW) 2,593 9.9 -11.4°
Maximum altitude 11:16:53 10° 332° (NNW) 2,588 9.9 -11.3°
Drops below altitude 10° 11:17:29 10° 338° (NNW) 2,602 10.0 -11.2°
Sets 11:23:20 0° 21° (NNE) 3,589 11.2 -10.1°
